Location: Hermaringen
(48.5952°N, 10.2585°E)
Time: 09:54:10
(UTC+00:00)

A-11 Canister half - Pass Details

Date: 16 February 2026
Orbit: 1513 x 1687 km, 47.2° (Epoch: 11 March)

Event Time Altitude Azimuth Distance (km) Brightness Sun altitude
Rises 21:12:14 0° 235° (SW) 4,932 11.8 -43.3°
Reaches altitude 10° 21:15:27 10° 233° (SW) 3,939 11.2 -43.7°
Enters shadow 21:18:03 21° 229° (SW) 3,170 10.6 -44.0°
